Date String (YYYY-MM-DD hh:mm:ss) UTC,Instrument flags,Ambient pressure (hPa),Sample flow (lpm),Bypass flow (lpm),Sample temperature (°C),Ambient temperature (°C),ASC tube jacket temperature (°C),LED temperature (°C),Box temperature (°C),Sample RH (%),Span deviation,Mass concentration (μg/m³),Mass concentration (μg/m³),Mass concentration (μg/m³)
DateTimeUTC,F1_M11,P_M11,Q1_M11,Q2_M11,T1_M11,T2_M11,T3_M11,T4_M11,T5_M11,U1_M11,ZSPAN_M11,X0_M11,X2_M11,X1_M11
2022-05-07 14:00:00,,0817.1,5.00,0.00,30.1,29.2,00.0,38.9,31.8,12.2,0000.0,0011.21,0003.85,0002.28
2022-05-07 14:01:00,,0817.1,5.00,0.00,30.1,29.2,00.0,38.9,31.9,12.6,0000.0,0010.97,0003.88,0002.29
2022-05-07 14:02:00,,0817.1,5.01,0.00,30.1,29.3,00.0,39.0,31.9,12.7,0000.0,0010.76,0003.88,0002.29
2022-05-07 14:03:00,,0817.1,5.01,0.00,30.1,29.3,00.0,39.0,31.9,12.7,0000.0,0011.14,0003.83,0002.29
2022-05-07 14:04:00,,0817.1,5.00,0.00,30.1,29.3,00.0,39.0,31.9,12.6,0000.0,0011.19,0003.81,0002.30
2022-05-07 14:05:00,,0817.1,5.00,0.00,30.2,29.3,00.0,39.0,31.9,13.0,0000.0,0011.04,0003.79,0002.32
2022-05-07 14:06:00,,0817.1,5.00,0.00,30.2,29.3,00.0,39.0,31.9,12.5,0000.0,0011.08,0003.79,0002.33
2022-05-07 14:07:00,,0817.1,5.00,0.00,30.2,29.3,00.0,39.0,32.0,12.8,0000.0,0011.22,0003.81,0002.34
2022-05-07 14:08:00,,0817.1,5.01,0.00,30.2,29.3,00.0,39.0,32.0,13.2,0000.0,0011.67,0003.84,0002.34
2022-05-07 14:09:00,,0817.1,4.99,0.00,30.2,29.3,00.0,39.1,32.0,12.3,0000.0,0011.55,0003.81,0002.31
2022-05-07 14:10:00,,0817.0,4.99,0.00,30.2,29.4,00.0,39.1,32.0,12.2,0000.0,0010.90,0003.83,0002.33
2022-05-07 14:11:00,,0817.1,5.00,0.00,30.2,29.4,00.0,39.1,32.0,11.6,0000.0,0010.66,0003.86,0002.34
2022-05-07 14:12:00,,0817.0,5.00,0.00,30.2,29.4,00.0,39.1,32.0,11.4,0000.0,0010.52,0003.87,0002.34
2022-05-07 14:13:00,,0817.0,4.99,0.00,30.3,29.4,00.0,39.1,32.0,11.6,0000.0,0010.68,0003.92,0002.36
2022-05-07 14:14:00,,0817.0,5.00,0.00,30.3,29.4,00.0,39.1,32.0,10.8,0000.0,0011.22,0003.93,0002.36
2022-05-07 14:15:00,,0816.9,5.01,0.00,30.3,29.4,00.0,39.1,32.1,10.8,0000.0,0011.96,0003.98,0002.36
2022-05-07 14:16:00,,0816.9,5.00,0.00,30.3,29.4,00.0,39.2,32.1,11.5,0000.0,0012.12,0004.01,0002.36
2022-05-07 14:17:00,,0817.0,5.00,0.00,30.3,29.4,00.0,39.2,32.1,11.6,0000.0,0012.23,0003.97,0002.36
2022-05-07 14:18:00,,0817.0,5.01,0.00,30.3,29.4,00.0,39.2,32.1,11.5,0000.0,0012.26,0003.94,0002.37
2022-05-07 14:19:00,,0817.0,4.99,0.00,30.3,29.5,00.0,39.2,32.1,10.6,0000.0,0012.18,0003.94,0002.37
2022-05-07 14:20:00,,0817.0,5.01,0.00,30.4,29.5,00.0,39.2,32.1,10.9,0000.0,0012.43,0003.98,0002.39
2022-05-07 14:21:00,,0816.9,5.01,0.00,30.4,29.5,00.0,39.2,32.1,10.6,0000.0,0012.20,0004.01,0002.39
2022-05-07 14:22:00,,0817.0,5.00,0.00,30.4,29.5,00.0,39.2,32.1,10.8,0000.0,0011.90,0004.03,0002.40
2022-05-07 14:23:00,,0816.9,4.99,0.00,30.4,29.5,00.0,39.3,32.1,11.7,0000.0,0012.36,0004.01,0002.42
2022-05-07 14:24:00,,0817.0,5.01,0.00,30.4,29.5,00.0,39.3,32.1,11.5,0000.0,0012.56,0003.99,0002.42
2022-05-07 14:25:00,,0817.0,5.00,0.00,30.4,29.6,00.0,39.3,32.2,11.2,0000.0,0011.62,0004.04,0002.43
2022-05-07 14:26:00,,0816.9,5.00,0.00,30.4,29.6,00.0,39.3,32.2,11.5,0000.0,0011.30,0003.99,0002.43
2022-05-07 14:27:00,,0816.9,5.00,0.00,30.5,29.6,00.0,39.3,32.2,11.0,0000.0,0010.97,0003.97,0002.44
2022-05-07 14:28:00,,0817.2,5.01,0.00,30.5,29.6,00.0,39.3,32.2,10.8,0000.0,0010.70,0003.99,0002.45
2022-05-07 14:29:00,,0817.3,5.00,0.00,30.5,29.6,00.0,39.3,32.2,11.4,0000.0,0010.98,0004.03,0002.46
2022-05-07 14:30:00,,0817.2,4.99,0.00,30.5,29.6,00.0,39.4,32.2,10.9,0000.0,0011.11,0004.01,0002.47
2022-05-07 14:31:00,,0816.8,5.00,0.00,30.5,29.6,00.0,39.4,32.2,11.0,0000.0,0010.72,0003.97,0002.45
2022-05-07 14:32:00,,0816.8,4.99,0.00,30.5,29.7,00.0,39.4,32.2,11.1,0000.0,0010.82,0003.95,0002.45
2022-05-07 14:33:00,,0816.8,4.99,0.00,30.5,29.7,00.0,39.4,32.2,11.7,0000.0,0010.65,0003.91,0002.45
2022-05-07 14:34:00,,0816.9,5.00,0.00,30.5,29.7,00.0,39.4,32.3,12.3,0000.0,0010.36,0003.89,0002.45
2022-05-07 14:35:00,,0816.9,4.99,0.00,30.6,29.7,00.0,39.4,32.3,11.7,0000.0,0009.89,0003.90,0002.45
2022-05-07 14:36:00,,0816.8,5.01,0.00,30.6,29.6,00.0,39.4,32.3,11.4,0000.0,0009.79,0003.82,0002.45
2022-05-07 14:37:00,,0816.8,5.00,0.00,30.5,27.7,00.0,39.4,31.9,11.8,0000.0,0009.49,0003.78,0002.45
2022-05-07 14:38:00,,0816.7,5.00,0.00,30.3,26.0,00.0,39.4,31.5,11.4,0000.0,0009.27,0003.82,0002.46
2022-05-07 14:39:00,,0816.7,5.01,0.00,30.2,26.2,00.0,39.3,31.6,12.0,0000.0,0009.26,0003.81,0002.46
2022-05-07 14:40:00,,0816.6,4.99,0.00,30.2,26.7,00.0,39.3,31.6,11.4,0000.0,0008.96,0003.80,0002.45
2022-05-07 14:41:00,,0816.6,5.00,0.00,30.1,27.1,00.0,39.2,31.6,11.9,0000.0,0009.43,0003.87,0002.45
2022-05-07 14:42:00,,0816.7,5.00,0.00,30.1,27.5,00.0,39.2,31.6,12.0,0000.0,0010.00,0003.91,0002.46
2022-05-07 14:43:00,,0816.7,5.00,0.00,30.1,27.9,00.0,39.1,31.7,12.0,0000.0,0010.18,0003.94,0002.48
2022-05-07 14:44:00,,0816.8,5.01,0.00,30.1,28.1,00.0,39.1,31.7,11.7,0000.0,0010.41,0003.97,0002.47
2022-05-07 14:45:00,,0816.8,5.01,0.00,30.1,28.3,00.0,39.1,31.7,11.4,0000.0,0010.49,0003.99,0002.45
2022-05-07 14:46:00,,0816.7,5.00,0.00,30.1,28.5,00.0,39.1,31.8,12.4,0000.0,0010.67,0003.99,0002.46
2022-05-07 14:47:00,,0816.7,5.00,0.00,30.1,28.7,00.0,39.1,31.8,13.2,0000.0,0011.25,0004.05,0002.47
2022-05-07 14:48:00,,0816.7,4.99,0.00,30.2,28.8,00.0,39.1,31.8,12.6,0000.0,0011.28,0004.10,0002.47
2022-05-07 14:49:00,,0816.6,5.00,0.00,30.2,28.9,00.0,39.1,31.9,12.5,0000.0,0011.47,0004.15,0002.46
2022-05-07 14:50:00,,0816.6,5.00,0.00,30.2,29.0,00.0,39.1,31.9,12.0,0000.0,0011.78,0004.14,0002.46
2022-05-07 14:51:00,,0816.6,5.00,0.00,30.2,29.1,00.0,39.1,32.0,11.7,0000.0,0011.77,0004.06,0002.43
2022-05-07 14:52:00,,0816.5,5.00,0.00,30.2,29.1,00.0,39.1,32.0,11.1,0000.0,0010.92,0003.99,0002.40
2022-05-07 14:53:00,,0816.6,5.00,0.00,30.3,29.2,00.0,39.1,32.0,11.6,0000.0,0010.66,0004.01,0002.39
2022-05-07 14:54:00,,0816.7,5.00,0.00,30.3,29.2,00.0,39.1,32.0,11.9,0000.0,0010.55,0004.00,0002.38
2022-05-07 14:55:00,,0816.6,5.00,0.00,30.3,29.3,00.0,39.1,32.0,12.2,0000.0,0011.18,0004.00,0002.38
2022-05-07 14:56:00,,0816.8,5.00,0.00,30.3,29.3,00.0,39.2,32.1,12.1,0000.0,0011.97,0003.97,0002.37
2022-05-07 14:57:00,,0816.6,5.00,0.00,30.3,29.4,00.0,39.2,32.1,11.7,0000.0,0012.30,0004.01,0002.37
2022-05-07 14:58:00,,0816.5,5.00,0.00,30.4,29.4,00.0,39.2,32.2,11.0,0000.0,0012.13,0003.98,0002.35
2022-05-07 14:59:00,,0816.5,5.00,0.00,30.4,29.4,00.0,39.2,32.2,11.8,0000.0,0012.06,0003.93,0002.35
